User: anonymous   Login
Location: Ariel
(45.9570°N, 122.5700°W)
Time: 14:07:05
(UTC-07:00)
Language:

ZACube-1 - Orbit

View from above orbital plane
View from above orbital plane
View from above satellite
View from above satellite

Ground track
Ground track

The orbit data is extracted from the following two-line orbital elements,

1 39417U 13066B   19109.91526984 +.00000189 +00000-0 +30231-4 0  9995
2 39417 097.5662 126.7661 0057793 228.9642 130.6568 14.81086017292192
Epoch (UTC): 19 April 2019 21:57:59
Eccentricity: 0.0057793
inclination: 97.5662°
perigee height: 585 km
apogee height: 666 km
right ascension of ascending node: 126.7661°
argument of perigee: 228.9642°
revolutions per day: 14.81086017
mean anomaly at epoch: 130.6568°
orbit number at epoch: 29219

The dashed part of the orbit path shows where the satellite is in the earth's shadow,  

DLR